{"data":{"norad_id":57740,"epoch":"2026-05-25T01:18:15.135840Z","epoch_age_seconds":77091,"freshness":"FRESH","line1":"1 57740U 23131J   26145.05434185 -.00000073  00000+0  68626-5 0  9994","line2":"2 57740  43.0029  28.1322 0001099 245.6563 114.4174 15.27580762152453","mean_motion":15.27580762,"eccentricity":0.0001099,"inclination_deg":43.0029,"raan_deg":28.1322,"arg_perigee_deg":245.6563,"mean_anomaly_deg":114.4174,"bstar":6.8626e-6,"rev_number":15245,"period_min":94.266701690761,"perigee_km":482.29277023728,"apogee_km":483.80085843967,"semimajor_km":6861.1838143385,"source":"CELESTRAK","updated_at":"2026-05-25T13:38:18.399614Z"}}